Flag for Germany Weather past 2 weeks in Ettlingen, Baden-Württemberg, Germany

Now
55 °F

Partly sunny.


Feels Like: 55 °F
Forecast: 47 / 71 °F
Wind: 3 mph from North

Location: Karlsruhe - Baden Wurttemberg

Current Time: May 27, 2015 at 1:05:12 PM

Latest Report: May 27, 2015 at 12:20 PM


Visibility: N/A

Pressure: 30.27 "Hg

Humidity: 51%

Dew point: 37 °F

Location of EttlingenLocation

Historic Weather in Ettlingen — Graph

°F

Ettlingen temperature yesterday

Maximum temperature yesterday: 61 °F (at 3:20 PM)
Minimum temperature yesterday: 52 °F (at 6:50 AM)
Average temperature yesterday: 56 °F

Past Weeks' High & Low Weather Summary

 TemperatureHumidityPressure
High84 °F (May 12, 2:20 PM)94% (May 14, 4:50 AM)30.33 "Hg (May 14, 4:50 AM)
Low39 °F (May 22, 4:50 AM)26% (May 22, 4:50 PM)29.71 "Hg (May 18, 7:50 PM)
Average60 °F61%30.06 "Hg
* Reported May 12 11:20 AM — May 27 11:50 AM, Ettlingen, Weather by CustomWeather, © 2015

Note: Actual official high and low records may vary slightly from our data, if they occured in-between our weather recording intervals... More about our weather records

Advertising

Ettlingen weather history for previous 24 hours

 ConditionsComfort  
Time TempWeatherWind HumidityBarometerVisibility
11:50 AM
Wed, May 27
55 °FPartly sunny.2 mph51%30.27 "HgN/A
11:20 AM54 °FPartly sunny.5 mph54%30.27 "HgN/A
10:50 AM55 °FSunny.5 mph47%30.27 "Hg10 mi
10:20 AM54 °FSunny.6 mph54%30.27 "Hg10 mi
9:50 AM54 °FSunny.5 mph54%30.27 "Hg10 mi
9:20 AM54 °FSunny.5 mph54%30.27 "Hg10 mi
8:50 AM52 °FSunny.2 mph62%30.27 "Hg10 mi
8:20 AM52 °FSunny.2 mph67%30.27 "Hg10 mi
7:50 AM50 °FSunny.No wind76%30.24 "Hg10 mi
7:20 AM48 °FBroken clouds.1 mph82%30.24 "HgN/A
6:50 AM46 °FBroken clouds.2 mph87%30.24 "HgN/A
6:20 AM46 °FClear.1 mph87%30.24 "Hg10 mi
5:50 AM46 °FPassing clouds.No wind87%30.24 "HgN/A
5:20 AM46 °FPassing clouds.No wind82%30.24 "HgN/A
4:50 AM46 °FClear.2 mph82%30.24 "Hg10 mi
11:20 PM
Tue, May 26
54 °FClear.1 mph54%30.21 "Hg10 mi
10:50 PM54 °FClear.3 mph54%30.21 "Hg10 mi
10:20 PM54 °FClear.5 mph54%30.21 "Hg10 mi
9:50 PM55 °FSunny.5 mph51%30.18 "Hg10 mi
9:20 PM55 °FSunny.6 mph51%30.18 "Hg10 mi
8:50 PM55 °FSunny.3 mph59%30.18 "Hg10 mi
8:20 PM55 °FSunny.2 mph55%30.15 "Hg10 mi
7:50 PM57 °FPassing clouds.5 mph48%30.15 "HgN/A
7:20 PM57 °FSunny.6 mph51%30.15 "Hg10 mi
6:50 PM57 °FBroken clouds.8 mph51%30.12 "HgN/A
6:20 PM57 °FBroken clouds.7 mph55%30.12 "HgN/A
5:50 PM57 °FBroken clouds.6 mph55%30.12 "HgN/A
5:20 PM59 °FBroken clouds.7 mph51%30.12 "HgN/A
4:50 PM59 °FBroken clouds.3 mph48%30.09 "HgN/A
4:20 PM59 °FBroken clouds.7 mph51%30.09 "HgN/A
3:50 PM61 °FPartly sunny.5 mph48%30.09 "HgN/A
3:20 PM61 °FBroken clouds.5 mph48%30.09 "HgN/A
2:50 PM57 °FPartly sunny.5 mph59%30.09 "HgN/A
2:20 PM57 °FBroken clouds.6 mph59%30.09 "HgN/A
1:50 PM57 °FBroken clouds.7 mph59%30.09 "HgN/A
1:20 PM59 °FBroken clouds.8 mph55%30.09 "HgN/A
Weather by CustomWeather, © 2015

See weather overviewHow to use our weather pages